Regional Weather Roundup
Issued by NWS

Home | Current Version | Previous Version | Text Only | Print | Product List | Glossary On
Versions: 1 2 3 4 5 6 7 8 9 10 11 12 13 14 15 16 17 18 19 20 21 22 23 24 25 26 27 28 29 30 31 32 33 34 35 36 37 38 39 40 41 42 43 44 45 46 47 48 49 50
000
ASUS46 KPQR 070110
RWROR

OREGON REGIONAL WEATHER ROUNDUP
NATIONAL WEATHER SERVICE PORTLAND OR
600 PM PDT WED MAY 06 2015

NOTE: "FAIR" INDICATES FEW OR NO CLOUDS BELOW 12,000 FEET WITH
NO SIGNIFICANT WEATHER AND/OR OBSTRUCTIONS TO VISIBILITY.

ORZ001>013-070200-
NORTHWEST OREGON


CITY           SKY/WX    TMP DP  RH WIND       PRES   REMARKS
ASTORIA        MOSUNNY   58  45  62 NW17G24   30.12S
NEWPORT        SUNNY     54  46  76 N15G21    30.14S
PORTLAND       PTSUNNY   61  38  42 N14G23    30.06S
VANCOUVER WA   MOSUNNY   61  37  41 VRB7      30.06R
SCAPPOOSE      LGT RAIN  63  38  39 NW15G24   30.06R
HILLSBORO      PTSUNNY   59  41  51 NW13      30.06R
AURORA         CLOUDY    62  38  40 N13G20    30.06S
MCMINNVILLE    CLOUDY    59  43  55 W10       30.07R
SALEM          PTSUNNY   62  40  44 NW16      30.04S
CORVALLIS      PTSUNNY   54  46  76 W8        30.07F
EUGENE         PTSUNNY   57  42  57 NW7       30.05F
$$

ORZ021-028-070200-
SOUTHWEST OREGON


CITY           SKY/WX    TMP DP  RH WIND       PRES   REMARKS
NORTH BEND     MOSUNNY   55  48  76 N20G28    30.12R
BROOKINGS      SUNNY     58  46  64 N15G24    29.98S
ROSEBURG       PTSUNNY   58  39  49 NW10G20   30.04R
SEXTON SUMMIT  CLOUDY    45  33  63 MISG      29.99S
MEDFORD        MOSUNNY   63  29  27 N10       29.96S
$$

ORZ014>016-041-070200-
COLUMBIA GORGE


CITY           SKY/WX    TMP DP  RH WIND       PRES   REMARKS
TROUTDALE      PTSUNNY   63  37  38 N8        30.03S
THE DALLES     CLOUDY    54  38  54 W12G21    30.04R
$$

ORZ029>031-041-044-049-050-061>064-502-503-505>511-070200-
EASTERN OREGON


CITY           SKY/WX    TMP DP  RH WIND       PRES   REMARKS
REDMOND        CLOUDY    43  34  70 SE9       30.00R
BEND           LGT RAIN  39  36  87 E5        29.99R
PRINEVILLE     CLOUDY    41  32  70 NE12G28   29.98S
KLAMATH FALLS  MOSUNNY   54  17  23 NW18G28   29.90R
LAKEVIEW       SUNNY     48  19  32 N14G24    29.91R
HERMISTON        N/A     59  32  36 W15       29.93R
PENDLETON      MOSUNNY   60  29  30 W9        29.91S
JOHN DAY       PTSUNNY   46  31  56 W12       29.92S
MEACHAM        CLOUDY    50  26  39 VRB5      29.92R
LA GRANDE      PTSUNNY   48  28  46 N20       29.92R
BAKER CITY     NOT AVBL
BURNS          MOSUNNY   50  23  34 NW23G33   29.88R
ROME             N/A     56  15  20 N8        29.81S
ONTARIO        MOSUNNY   64  25  22 NW21G30   29.80R
$$


USA.gov is the U.S. government's official web portal to all federal, state and local government web resources and services.